| time (UTC) | temp C | wind direction | speed KPH | gust KPH | rain 1hr cm | rain 24hr cm | rain mn cm | humidity % | barometer mb |
| 20260506124328 | 8 | 268 | 0.0 | 0.0 | 0.00 | 0.00 | 0.00 | 94 | 1012.6 |
| 20260506123831 | 8 | 268 | 0.0 | 0.0 | 0.00 | 0.00 | 0.00 | 94 | 1012.6 |
| 20260506123328 | 8 | 268 | 0.0 | 0.0 | 0.00 | 0.00 | 0.00 | 95 | 1012.6 |
| 20260506121815 | 8 | 268 | 0.0 | 0.0 | 0.00 | 0.00 | 0.00 | 94 | 1012.5 |
| 20260506121314 | 8 | 268 | 0.0 | 0.0 | 0.00 | 0.00 | 0.00 | 94 | 1012.5 |
| 20260506120819 | 8 | 268 | 0.0 | 0.0 | 0.00 | 0.00 | 0.00 | 95 | 1012.5 |
| 20260506120314 | 8 | 268 | 0.0 | 0.0 | 0.00 | 0.00 | 0.00 | 94 | 1012.5 |
| 20260506115807 | 8 | 268 | 0.0 | 0.0 | 0.00 | 0.00 | 0.00 | 94 | 1012.6 |
| 20260506115307 | 8 | 268 | 0.0 | 0.0 | 0.00 | 0.00 | 0.00 | 94 | 1012.6 |
| 20260506114800 | 8 | 268 | 0.0 | 0.0 | 0.00 | 0.00 | 0.00 | 94 | 1012.6 |
| 20260506114257 | 8 | 268 | 0.0 | 0.0 | 0.00 | 0.00 | 0.00 | 94 | 1012.6 |
| 20260506113756 | 8 | 268 | 0.0 | 0.0 | 0.00 | 0.00 | 0.00 | 94 | 1012.6 |
| 20260506112749 | 8 | 268 | 0.0 | 0.0 | 0.00 | 0.00 | 0.00 | 94 | 1012.6 |
| 20260506111746 | 8 | 268 | 0.0 | 0.0 | 0.00 | 0.00 | 0.00 | 94 | 1012.6 |
| 20260506111242 | 8 | 268 | 0.0 | 0.0 | 0.00 | 0.00 | 0.00 | 94 | 1012.6 |
| 20260506110737 | 8 | 268 | 0.0 | 3.2 | 0.00 | 0.00 | 0.00 | 94 | 1012.6 |
| 20260506110236 | 8 | 268 | 0.0 | 3.2 | 0.00 | 0.00 | 0.00 | 94 | 1012.6 |
| 20260506105732 | 8 | 268 | 0.0 | 0.0 | 0.00 | 0.00 | 0.00 | 93 | 1012.6 |
| 20260506105229 | 8 | 268 | 0.0 | 0.0 | 0.00 | 0.00 | 0.00 | 94 | 1012.6 |
| 20260506104723 | 8 | 268 | 0.0 | 0.0 | 0.00 | 0.00 | 0.00 | 94 | 1012.6 |
| 20260506104227 | 8 | 268 | 0.0 | 0.0 | 0.00 | 0.00 | 0.00 | 94 | 1012.6 |
| 20260506103722 | 8 | 268 | 0.0 | 0.0 | 0.00 | 0.00 | 0.00 | 93 | 1012.6 |
| 20260506102718 | 9 | 268 | 0.0 | 0.0 | 0.00 | 0.00 | 0.00 | 93 | 1012.6 |
| 20260506101717 | 9 | 268 | 0.0 | 0.0 | 0.00 | 0.00 | 0.00 | 94 | 1012.6 |
| 20260506101213 | 9 | 268 | 0.0 | 0.0 | 0.00 | 0.00 | 0.00 | 93 | 1012.5 |
| 20260506100710 | 9 | 268 | 0.0 | 0.0 | 0.00 | 0.00 | 0.00 | 93 | 1012.5 |
| 20260506100211 | 9 | 268 | 0.0 | 0.0 | 0.00 | 0.00 | 0.00 | 93 | 1012.5 |
| 20260506095708 | 9 | 268 | 0.0 | 0.0 | 0.00 | 0.00 | 0.00 | 93 | 1012.5 |
| 20260506095207 | 9 | 268 | 0.0 | 0.0 | 0.00 | 0.00 | 0.00 | 93 | 1012.5 |
| 20260506094701 | 9 | 268 | 0.0 | 0.0 | 0.00 | 0.00 | 0.00 | 93 | 1012.5 |
| 20260506094202 | 9 | 268 | 0.0 | 0.0 | 0.00 | 0.00 | 0.00 | 93 | 1012.5 |
| 20260506093656 | 10 | 268 | 0.0 | 0.0 | 0.00 | 0.00 | 0.00 | 93 | 1012.5 |
| 20260506093156 | 10 | 268 | 0.0 | 1.6 | 0.00 | 0.00 | 0.00 | 93 | 1012.5 |
| 20260506092657 | 10 | 268 | 0.0 | 1.6 | 0.00 | 0.00 | 0.00 | 93 | 1012.5 |
| 20260506092157 | 10 | 268 | 0.0 | 0.0 | 0.00 | 0.00 | 0.00 | 93 | 1012.5 |
| 20260506091653 | 10 | 268 | 0.0 | 1.6 | 0.00 | 0.00 | 0.00 | 93 | 1012.6 |
| 20260506091147 | 10 | 268 | 0.0 | 3.2 | 0.00 | 0.00 | 0.00 | 92 | 1012.8 |
| 20260506090644 | 10 | 268 | 0.0 | 3.2 | 0.00 | 0.00 | 0.00 | 93 | 1012.8 |
| 20260506090138 | 10 | 268 | 0.0 | 0.0 | 0.00 | 0.00 | 0.00 | 92 | 1012.8 |
| 20260506085637 | 10 | 268 | 0.0 | 0.0 | 0.00 | 0.00 | 0.00 | 93 | 1012.9 |
| 20260506085131 | 10 | 268 | 0.0 | 0.0 | 0.00 | 0.00 | 0.00 | 93 | 1012.9 |
| 20260506084632 | 10 | 268 | 0.0 | 0.0 | 0.00 | 0.00 | 0.00 | 92 | 1012.9 |
| 20260506084132 | 10 | 268 | 0.0 | 0.0 | 0.00 | 0.00 | 0.00 | 92 | 1013.0 |
| 20260506082619 | 10 | 268 | 0.0 | 0.0 | 0.00 | 0.00 | 0.00 | 92 | 1013.1 |
| 20260506081609 | 10 | 268 | 0.0 | 1.6 | 0.00 | 0.00 | 0.00 | 91 | 1013.1 |
| 20260506081110 | 10 | 268 | 0.0 | 1.6 | 0.00 | 0.00 | 0.00 | 92 | 1013.0 |
| 20260506080606 | 10 | 268 | 0.0 | 3.2 | 0.00 | 0.00 | 0.00 | 91 | 1013.0 |
| 20260506073045 | 11 | 268 | 0.0 | 4.8 | 0.00 | 0.00 | 0.00 | 91 | 1012.9 |
| 20260506072543 | 11 | 268 | 0.0 | 4.8 | 0.00 | 0.00 | 0.00 | 91 | 1012.7 |
| 20260506071541 | 11 | 268 | 0.0 | 3.2 | 0.00 | 0.00 | 0.00 | 90 | 1012.7 |
| 20260506071038 | 11 | 268 | 0.0 | 3.2 | 0.00 | 0.00 | 0.00 | 90 | 1012.7 |
| 20260506070539 | 11 | 268 | 0.0 | 3.2 | 0.00 | 0.00 | 0.00 | 90 | 1012.7 |
| 20260506062016 | 12 | 268 | 0.0 | 3.2 | 0.00 | 0.00 | 0.00 | 89 | 1012.5 |
| 20260506061517 | 12 | 268 | 0.0 | 3.2 | 0.00 | 0.00 | 0.00 | 88 | 1012.5 |
| 20260506061017 | 12 | 268 | 1.6 | 4.8 | 0.00 | 0.00 | 0.00 | 89 | 1012.5 |
| 20260506050956 | 12 | 297 | 1.6 | 6.4 | 0.00 | 0.00 | 0.00 | 88 | 1012.1 |
| 20260506050456 | 12 | 297 | 1.6 | 4.8 | 0.00 | 0.00 | 0.00 | 87 | 1012.1 |
| 20260506044950 | 12 | 297 | 1.6 | 4.8 | 0.00 | 0.00 | 0.00 | 87 | 1012.1 |
| 20260506044447 | 12 | 297 | 1.6 | 4.8 | 0.00 | 0.00 | 0.00 | 87 | 1012.1 |
| 20260506043942 | 12 | 297 | 1.6 | 6.4 | 0.00 | 0.00 | 0.00 | 87 | 1012.0 |
| 20260506043443 | 13 | 297 | 1.6 | 8.0 | 0.00 | 0.00 | 0.00 | 87 | 1012.0 |
| 20260506042438 | 13 | 297 | 3.2 | 8.0 | 0.00 | 0.00 | 0.00 | 87 | 1011.8 |
| 20260506041436 | 13 | 302 | 3.2 | 11.3 | 0.00 | 0.00 | 0.00 | 87 | 1011.8 |
| 20260506040934 | 13 | 286 | 1.6 | 6.4 | 0.00 | 0.00 | 0.00 | 87 | 1011.6 |
| 20260506040431 | 13 | 286 | 3.2 | 11.3 | 0.00 | 0.00 | 0.00 | 87 | 1011.6 |
| 20260506035426 | 13 | 314 | 4.8 | 12.9 | 0.00 | 0.00 | 0.00 | 87 | 1011.2 |
| 20260506034928 | 13 | 291 | 6.4 | 20.9 | 0.00 | 0.00 | 0.00 | 87 | 1011.2 |
| 20260506034433 | 13 | 281 | 6.4 | 20.9 | 0.00 | 0.00 | 0.00 | 87 | 1011.2 |
| 20260506033926 | 13 | 286 | 6.4 | 14.5 | 0.00 | 0.00 | 0.00 | 87 | 1011.0 |
| 20260506033425 | 13 | 287 | 4.8 | 16.1 | 0.00 | 0.00 | 0.00 | 86 | 1011.0 |
| 20260506032926 | 13 | 289 | 6.4 | 16.1 | 0.00 | 0.00 | 0.00 | 86 | 1011.0 |
| 20260506032426 | 13 | 295 | 8.0 | 17.7 | 0.00 | 0.00 | 0.00 | 85 | 1010.7 |
| 20260506031924 | 13 | 275 | 8.0 | 17.7 | 0.00 | 0.00 | 0.00 | 85 | 1010.7 |
| 20260506031422 | 13 | 286 | 8.0 | 24.1 | 0.00 | 0.00 | 0.00 | 85 | 1010.7 |
| 20260506030923 | 13 | 292 | 8.0 | 24.1 | 0.00 | 0.00 | 0.00 | 85 | 1010.7 |
| 20260506030422 | 13 | 290 | 6.4 | 16.1 | 0.00 | 0.00 | 0.00 | 84 | 1010.7 |
| 20260506025919 | 13 | 313 | 6.4 | 12.9 | 0.00 | 0.00 | 0.00 | 84 | 1010.7 |
| 20260506025420 | 13 | 293 | 4.8 | 12.9 | 0.00 | 0.00 | 0.00 | 84 | 1010.4 |
| 20260506024924 | 13 | 284 | 4.8 | 9.7 | 0.00 | 0.00 | 0.00 | 83 | 1010.4 |
| 20260506024423 | 13 | 302 | 4.8 | 9.7 | 0.00 | 0.00 | 0.00 | 83 | 1010.4 |
| 20260506023916 | 13 | 286 | 6.4 | 14.5 | 0.00 | 0.00 | 0.00 | 83 | 1010.3 |
| 20260506023412 | 13 | 263 | 6.4 | 16.1 | 0.00 | 0.00 | 0.00 | 82 | 1010.3 |
| 20260506022910 | 13 | 288 | 6.4 | 19.3 | 0.00 | 0.00 | 0.00 | 82 | 1010.2 |
| 20260506022405 | 14 | 273 | 6.4 | 19.3 | 0.00 | 0.00 | 0.00 | 82 | 1010.2 |
| 20260506021905 | 14 | 279 | 4.8 | 16.1 | 0.00 | 0.00 | 0.00 | 81 | 1010.2 |
| 20260506021405 | 14 | 294 | 6.4 | 16.1 | 0.00 | 0.00 | 0.00 | 81 | 1010.1 |
| 20260506020901 | 14 | 337 | 8.0 | 14.5 | 0.00 | 0.00 | 0.00 | 81 | 1010.1 |
| 20260506020358 | 14 | 280 | 8.0 | 14.5 | 0.00 | 0.00 | 0.00 | 80 | 1010.1 |
| 20260506015859 | 14 | 335 | 8.0 | 19.3 | 0.00 | 0.00 | 0.00 | 79 | 1010.1 |
| 20260506015358 | 14 | 316 | 8.0 | 19.3 | 0.00 | 0.00 | 0.00 | 78 | 1010.1 |
| 20260506014903 | 15 | 304 | 8.0 | 17.7 | 0.00 | 0.00 | 0.00 | 77 | 1010.1 |
| 20260506014404 | 15 | 292 | 6.4 | 16.1 | 0.00 | 0.00 | 0.00 | 76 | 1010.1 |
| 20260506013859 | 15 | 305 | 6.4 | 19.3 | 0.00 | 0.00 | 0.00 | 76 | 1010.1 |
| 20260506013357 | 15 | 259 | 6.4 | 19.3 | 0.00 | 0.00 | 0.00 | 75 | 1010.1 |
| 20260506012355 | 15 | 269 | 9.7 | 25.7 | 0.00 | 0.00 | 0.00 | 74 | 1010.1 |
| 20260506011856 | 15 | 298 | 8.0 | 20.9 | 0.00 | 0.00 | 0.00 | 73 | 1010.1 |
| 20260506011356 | 16 | 289 | 6.4 | 20.9 | 0.00 | 0.00 | 0.00 | 71 | 1010.1 |
| 20260506010855 | 16 | 311 | 6.4 | 14.5 | 0.00 | 0.00 | 0.00 | 69 | 1010.1 |
| 20260506005852 | 16 | 318 | 6.4 | 17.7 | 0.00 | 0.00 | 0.00 | 70 | 1010.1 |
| 20260506004342 | 16 | 324 | 8.0 | 16.1 | 0.00 | 0.00 | 0.00 | 70 | 1010.1 |
| 20260506003841 | 16 | 274 | 8.0 | 16.1 | 0.00 | 0.00 | 0.00 | 70 | 1010.1 |
| 20260506003339 | 16 | 240 | 8.0 | 19.3 | 0.00 | 0.00 | 0.00 | 70 | 1010.1 |
| 20260506002840 | 17 | 302 | 9.7 | 22.5 | 0.00 | 0.00 | 0.00 | 69 | 1009.9 |
| 20260506002336 | 17 | 314 | 8.0 | 22.5 | 0.00 | 0.00 | 0.00 | 67 | 1009.9 |
| 20260506001835 | 17 | 273 | 6.4 | 17.7 | 0.00 | 0.00 | 0.00 | 67 | 1009.9 |
| 20260506001334 | 17 | 301 | 8.0 | 17.7 | 0.00 | 0.00 | 0.00 | 67 | 1009.9 |
| 20260506000833 | 17 | 299 | 8.0 | 16.1 | 0.00 | 0.00 | 0.00 | 66 | 1009.9 |
| 20260506000331 | 17 | 304 | 8.0 | 19.3 | 0.00 | 0.00 | 0.00 | 67 | 1009.9 |
| 20260505235330 | 17 | 309 | 8.0 | 20.9 | 0.00 | 0.00 | 0.00 | 63 | 1010.0 |
| 20260505234324 | 18 | 300 | 8.0 | 19.3 | 0.00 | 0.00 | 0.00 | 66 | 1010.2 |
| 20260505233324 | 18 | 273 | 8.0 | 17.7 | 0.00 | 0.00 | 0.00 | 66 | 1010.2 |
| 20260505232320 | 18 | 322 | 8.0 | 17.7 | 0.00 | 0.00 | 0.00 | 65 | 1010.0 |
| 20260505231819 | 18 | 290 | 8.0 | 17.7 | 0.00 | 0.00 | 0.00 | 67 | 1010.0 |
| 20260505230819 | 18 | 325 | 9.7 | 20.9 | 0.00 | 0.00 | 0.00 | 66 | 1010.2 |
| 20260505230324 | 18 | 313 | 9.7 | 17.7 | 0.00 | 0.00 | 0.00 | 66 | 1010.2 |
| 20260505225819 | 18 | 324 | 8.0 | 19.3 | 0.00 | 0.00 | 0.00 | 66 | 1010.1 |
| 20260505225316 | 18 | 346 | 9.7 | 22.5 | 0.00 | 0.00 | 0.00 | 66 | 1010.1 |
| 20260505224816 | 18 | 302 | 9.7 | 22.5 | 0.00 | 0.00 | 0.00 | 65 | 1010.1 |
| 20260505224314 | 18 | 311 | 8.0 | 17.7 | 0.00 | 0.00 | 0.00 | 65 | 1010.2 |
| 20260505223815 | 18 | 336 | 9.7 | 17.7 | 0.00 | 0.00 | 0.00 | 65 | 1010.2 |
| 20260505223310 | 18 | 323 | 9.7 | 20.9 | 0.00 | 0.00 | 0.00 | 64 | 1010.2 |
| 20260505222308 | 18 | 313 | 8.0 | 16.1 | 0.00 | 0.00 | 0.00 | 64 | 1010.3 |
| 20260505221809 | 18 | 313 | 8.0 | 19.3 | 0.00 | 0.00 | 0.00 | 63 | 1010.3 |
| 20260505221311 | 19 | 277 | 9.7 | 20.9 | 0.00 | 0.00 | 0.00 | 63 | 1010.3 |
| 20260505220812 | 19 | 299 | 9.7 | 22.5 | 0.00 | 0.00 | 0.00 | 62 | 1010.3 |
| 20260505220307 | 19 | 329 | 8.0 | 22.5 | 0.00 | 0.00 | 0.00 | 62 | 1010.3 |
| 20260505215804 | 19 | 332 | 8.0 | 17.7 | 0.00 | 0.00 | 0.00 | 62 | 1010.6 |
| 20260505215305 | 18 | 11 | 9.7 | 17.7 | 0.00 | 0.00 | 0.00 | 64 | 1010.6 |
| 20260505214801 | 18 | 323 | 9.7 | 17.7 | 0.00 | 0.00 | 0.00 | 64 | 1010.6 |
| 20260505214255 | 18 | 306 | 9.7 | 25.7 | 0.00 | 0.00 | 0.00 | 66 | 1010.8 |
| 20260505213756 | 18 | 332 | 9.7 | 25.7 | 0.00 | 0.00 | 0.00 | 64 | 1010.7 |
| 20260505213258 | 18 | 277 | 11.3 | 22.5 | 0.00 | 0.00 | 0.00 | 66 | 1010.8 |
| 20260505212751 | 18 | 291 | 9.7 | 22.5 | 0.00 | 0.00 | 0.00 | 64 | 1010.8 |
| 20260505212253 | 18 | 309 | 8.0 | 17.7 | 0.00 | 0.00 | 0.00 | 63 | 1010.8 |
| 20260505211751 | 18 | 323 | 8.0 | 17.7 | 0.00 | 0.00 | 0.00 | 65 | 1010.8 |
| 20260505211255 | 18 | 319 | 8.0 | 19.3 | 0.00 | 0.00 | 0.00 | 63 | 1010.7 |
| 20260505210755 | 18 | 303 | 9.7 | 19.3 | 0.00 | 0.00 | 0.00 | 63 | 1010.7 |
| 20260505210249 | 17 | 266 | 9.7 | 19.3 | 0.00 | 0.00 | 0.00 | 63 | 1010.7 |
| 20260505205749 | 18 | 306 | 8.0 | 17.7 | 0.00 | 0.00 | 0.00 | 61 | 1010.8 |
| 20260505205248 | 18 | 328 | 8.0 | 19.3 | 0.00 | 0.00 | 0.00 | 60 | 1010.8 |
| 20260505204747 | 18 | 311 | 9.7 | 20.9 | 0.00 | 0.00 | 0.00 | 60 | 1010.8 |
| 20260505204246 | 18 | 317 | 9.7 | 20.9 | 0.00 | 0.00 | 0.00 | 60 | 1010.8 |
| 20260505203744 | 18 | 321 | 11.3 | 22.5 | 0.00 | 0.00 | 0.00 | 62 | 1010.7 |
| 20260505203245 | 17 | 262 | 9.7 | 22.5 | 0.00 | 0.00 | 0.00 | 62 | 1010.7 |
| 20260505202743 | 17 | 258 | 8.0 | 19.3 | 0.00 | 0.00 | 0.00 | 61 | 1010.7 |
| 20260505201738 | 17 | 303 | 8.0 | 17.7 | 0.00 | 0.00 | 0.00 | 62 | 1010.7 |
| 20260505201235 | 17 | 277 | 8.0 | 17.7 | 0.00 | 0.00 | 0.00 | 64 | 1010.7 |
| 20260505200741 | 17 | 309 | 8.0 | 19.3 | 0.00 | 0.00 | 0.00 | 62 | 1010.7 |
| 20260505200242 | 17 | 313 | 9.7 | 22.5 | 0.00 | 0.00 | 0.00 | 64 | 1010.7 |
| 20260505195734 | 17 | 321 | 11.3 | 22.5 | 0.00 | 0.00 | 0.00 | 61 | 1010.7 |
| 20260505194228 | 17 | 322 | 9.7 | 22.5 | 0.00 | 0.00 | 0.00 | 59 | 1010.6 |
| 20260505193725 | 18 | 265 | 6.4 | 22.5 | 0.00 | 0.00 | 0.00 | 58 | 1010.7 |
| 20260505193227 | 18 | 347 | 6.4 | 17.7 | 0.00 | 0.00 | 0.00 | 60 | 1010.7 |
| 20260505192224 | 18 | 314 | 6.4 | 12.9 | 0.00 | 0.00 | 0.00 | 57 | 1010.7 |
| 20260505191721 | 18 | 11 | 6.4 | 14.5 | 0.00 | 0.00 | 0.00 | 55 | 1010.7 |
| 20260505191221 | 18 | 313 | 6.4 | 14.5 | 0.00 | 0.00 | 0.00 | 57 | 1010.7 |
| 20260505190723 | 19 | 316 | 8.0 | 14.5 | 0.00 | 0.00 | 0.00 | 55 | 1010.7 |
| 20260505185716 | 18 | 355 | 6.4 | 14.5 | 0.00 | 0.00 | 0.00 | 54 | 1010.5 |
| 20260505185212 | 18 | 316 | 8.0 | 14.5 | 0.00 | 0.00 | 0.00 | 55 | 1010.5 |
| 20260505184711 | 18 | 322 | 6.4 | 12.9 | 0.00 | 0.00 | 0.00 | 55 | 1010.5 |
| 20260505184209 | 18 | 336 | 6.4 | 12.9 | 0.00 | 0.00 | 0.00 | 54 | 1010.6 |
| 20260505183705 | 19 | 299 | 6.4 | 14.5 | 0.00 | 0.00 | 0.00 | 53 | 1010.6 |
| 20260505182701 | 19 | 312 | 6.4 | 16.1 | 0.00 | 0.00 | 0.00 | 54 | 1010.6 |
| 20260505181651 | 19 | 318 | 4.8 | 12.9 | 0.00 | 0.00 | 0.00 | 55 | 1010.6 |
| 20260505181151 | 19 | 20 | 3.2 | 11.3 | 0.00 | 0.00 | 0.00 | 58 | 1010.4 |
| 20260505180649 | 18 | 293 | 4.8 | 14.5 | 0.00 | 0.00 | 0.00 | 59 | 1010.4 |
| 20260505180150 | 18 | 311 | 6.4 | 14.5 | 0.00 | 0.00 | 0.00 | 58 | 1010.4 |
| 20260505175649 | 18 | 295 | 6.4 | 11.3 | 0.00 | 0.00 | 0.00 | 60 | 1010.3 |
| 20260505175144 | 17 | 320 | 4.8 | 12.9 | 0.00 | 0.00 | 0.00 | 61 | 1010.2 |
| 20260505174643 | 17 | 327 | 6.4 | 17.7 | 0.00 | 0.00 | 0.00 | 61 | 1010.2 |
| 20260505174139 | 17 | 298 | 8.0 | 17.7 | 0.00 | 0.00 | 0.00 | 61 | 1010.2 |
| 20260505173636 | 18 | 259 | 6.4 | 16.1 | 0.00 | 0.00 | 0.00 | 60 | 1010.3 |
| 20260505173134 | 18 | 279 | 4.8 | 12.9 | 0.00 | 0.00 | 0.00 | 59 | 1010.3 |
| 20260505172635 | 18 | 322 | 3.2 | 11.3 | 0.00 | 0.00 | 0.00 | 63 | 1010.3 |
| 20260505172130 | 17 | 292 | 4.8 | 12.9 | 0.00 | 0.00 | 0.00 | 63 | 1010.2 |
| 20260505171627 | 16 | 290 | 6.4 | 12.9 | 0.00 | 0.00 | 0.00 | 63 | 1010.2 |
| 20260505170128 | 16 | 290 | 6.4 | 14.5 | 0.00 | 0.00 | 0.00 | 66 | 1010.2 |
| 20260505165626 | 16 | 275 | 4.8 | 11.3 | 0.00 | 0.00 | 0.00 | 65 | 1010.3 |
| 20260505165129 | 16 | 315 | 4.8 | 11.3 | 0.00 | 0.00 | 0.00 | 67 | 1010.3 |
| 20260505164624 | 16 | 333 | 4.8 | 11.3 | 0.00 | 0.00 | 0.00 | 68 | 1010.3 |
| 20260505164120 | 16 | 323 | 6.4 | 11.3 | 0.00 | 0.00 | 0.00 | 69 | 1010.3 |
| 20260505163618 | 15 | 296 | 4.8 | 12.9 | 0.00 | 0.00 | 0.00 | 71 | 1010.3 |
| 20260505163118 | 15 | 276 | 3.2 | 12.9 | 0.00 | 0.00 | 0.00 | 72 | 1010.3 |
| 20260505162615 | 15 | 5 | 4.8 | 9.7 | 0.00 | 0.00 | 0.00 | 74 | 1010.2 |
| 20260505162114 | 15 | 317 | 3.2 | 8.0 | 0.00 | 0.00 | 0.00 | 76 | 1010.2 |
| 20260505161615 | 15 | 317 | 3.2 | 8.0 | 0.00 | 0.00 | 0.00 | 78 | 1010.2 |
| 20260505161111 | 14 | 317 | 3.2 | 8.0 | 0.00 | 0.00 | 0.00 | 79 | 1010.1 |
| 20260505160607 | 14 | 317 | 3.2 | 8.0 | 0.00 | 0.00 | 0.00 | 78 | 1010.1 |
| 20260505160110 | 14 | 317 | 3.2 | 8.0 | 0.00 | 0.00 | 0.00 | 78 | 1010.1 |
| 20260505153050 | 14 | 315 | 1.6 | 6.4 | 0.00 | 0.00 | 0.00 | 85 | 1009.9 |
| 20260505152547 | 13 | 308 | 0.0 | 4.8 | 0.00 | 0.00 | 0.00 | 87 | 1009.7 |
| 20260505152046 | 13 | 308 | 0.0 | 4.8 | 0.00 | 0.00 | 0.00 | 87 | 1009.7 |
| 20260505151539 | 13 | 301 | 0.0 | 4.8 | 0.00 | 0.00 | 0.00 | 89 | 1009.7 |
| 20260505151036 | 13 | 298 | 0.0 | 4.8 | 0.00 | 0.00 | 0.00 | 91 | 1009.8 |
| 20260505150530 | 12 | 298 | 1.6 | 4.8 | 0.00 | 0.00 | 0.00 | 93 | 1009.7 |
| 20260505140515 | 8 | 296 | 0.0 | 0.0 | 0.00 | 0.00 | 0.00 | 94 | 1009.5 |
| 20260505124949 | 8 | 296 | 0.0 | 0.0 | 0.00 | 0.00 | 0.00 | 93 | 1009.0 |